DIRECTV 15

Last updated on Thu Nov 21 2024 00:02:43 GMT+0000 (Coordinated Universal Time)

1 40663U 15026A 24325.29892022 -.00000101 00000+0 00000+0 0 9994 2 40663 0.0545 97.0021 0000542 156.1473 171.4059 1.00269360 34711
UTC large
Height (km)
Speed (km/s)
/
Latitude / Longitude
Inclination (degrees)
Orbital Period (minutes)
Azimuth
Elevation
Range (km)
Doppler Factor

Next 0 passes for location: London (51.5072 / 0.1276)

Sorry there are no passes over London.